Simultaneous Nadir Overpasses (SNOs) Predictions

Prediction of SNOs between AQUA and NOAA-19 Satellite Orbit:

Table of predicted SNOs for the next 14.0 days since TLE Epoch: 9/2/2023
Index Date (AQUA) Time (AQUA) Lat,Lon (AQUA) SZA (AQUA ) Date (NOAA-19) Time (NOAA-19) Lat,Lon (NOAA-19) SZA (NOAA-19 ) Distance(km) Time Diff (sec)
1 09/02/2023 18:52:11 -76.22, 69.02 111.52 09/02/2023 18:51:25 -76.22, 68.91 111.51 3.11 46
2 09/02/2023 19:41:37 76.28,-123.53 68.56 09/02/2023 19:42:17 76.29,-123.57 68.57 1.53 40
3 09/04/2023 23:33:56 -76.23, -1.41 110.72 09/04/2023 23:32:49 -76.23, -1.36 110.71 1.25 67
4 09/05/2023 00:23:22 76.29, 166.03 69.37 09/05/2023 00:23:41 76.28, 166.13 69.36 2.55 19
5 09/07/2023 04:15:30 -75.73, -70.27 110.45 09/07/2023 04:14:25 -75.69, -73.59 110.36 91.10 65
6 09/07/2023 05:05:06 76.28, 95.65 70.17 09/07/2023 05:05:05 76.28, 95.81 70.16 4.27 1
7 09/09/2023 09:46:49 76.25, 25.33 70.96 09/09/2023 09:46:29 76.26, 25.48 70.97 4.03 20
8 09/09/2023 10:36:18 -76.56,-168.04 108.70 09/09/2023 10:37:27 -76.55,-166.16 108.77 48.83 69
9 09/11/2023 14:28:30 76.21, -44.94 71.74 09/11/2023 14:27:53 76.20, -45.05 71.73 3.31 37
10 09/11/2023 15:17:55 -76.28, 122.50 108.18 09/11/2023 15:18:57 -76.27, 122.45 108.20 1.39 62
11 09/13/2023 19:10:12 76.21,-115.32 72.56 09/13/2023 19:09:16 76.22,-115.26 72.58 1.89 56
12 09/13/2023 19:59:37 -76.27, 52.13 107.36 09/13/2023 20:00:20 -76.28, 52.22 107.35 3.11 43
13 09/15/2023 23:51:53 76.18, 174.37 73.37 09/15/2023 23:50:40 76.19, 174.34 73.39 1.06 73
14 09/16/2023 00:41:18 -76.24, -18.19 106.55 09/16/2023 00:41:44 -76.25, -18.20 106.55 0.54 26



Historial Predications of SNOs between AQUA and NOAA-19
